Location: San Antonio
(29.4240°N, 98.4930°W)
Time: 21:40:17
(UTC-05:00)

Hubble Space Telescope - Pass Details

Date: 27 June 2024
Orbit: 510 x 513 km, 28.5° (Epoch: 18 July)

Event Time Altitude Azimuth Distance (km) Brightness Sun altitude
Exits shadow 05:51:51 12° 244° (WSW) 1,576 2.5 -9.2°
Maximum altitude 05:55:21 54° 168° (SSE) 619 0.9 -8.6°
Drops below altitude 10° 05:59:13 10° 90° (E) 1,717 4.3 -7.9°
Sets 06:01:29 0° 86° (E) 2,602 5.5 -7.5°
